Time,TemperatureF,DewpointF,PressureIn,WindDirection,WindDirectionDegrees,WindSpeedMPH,WindSpeedGustMPH,Humidity,HourlyPrecipIn,Conditions,Clouds,dailyrainin,SolarRadiationWatts/m^2,SoftwareType,DateUTC
2013-04-03 00:00:00,39.9,29.8,29.85,North,-999,0.0,0.0,67,0.00,,,-99.99,0,WeatherLink 5.7,2013-04-03 06:00:00,
2013-04-03 00:10:00,39.6,29.5,29.85,North,-999,0.0,0.0,67,0.00,,,-99.99,0,WeatherLink 5.7,2013-04-03 06:10:00,
2013-04-03 00:20:00,39.2,29.5,29.88,North,-999,0.0,0.0,68,0.00,,,-99.99,0,WeatherLink 5.7,2013-04-03 06:20:00,
2013-04-03 00:25:00,39.2,29.5,29.88,North,-999,0.0,0.0,68,0.00,,,-99.99,0,WeatherLink 5.7,2013-04-03 06:25:00,
2013-04-03 00:30:00,39.0,29.7,29.88,North,-999,0.0,0.0,69,0.00,,,-99.99,0,WeatherLink 5.7,2013-04-03 06:30:00,
2013-04-03 00:40:00,38.8,29.5,29.88,North,-999,0.0,0.0,69,0.00,,,-99.99,0,WeatherLink 5.7,2013-04-03 06:40:00,
2013-04-03 00:45:00,38.8,29.5,29.88,North,-999,0.0,0.0,69,0.00,,,-99.99,0,WeatherLink 5.7,2013-04-03 06:45:00,
2013-04-03 00:50:00,39.0,29.7,29.88,ENE,67,0.0,3.0,69,0.00,,,-99.99,0,WeatherLink 5.7,2013-04-03 06:50:00,
2013-04-03 00:55:00,39.2,29.5,29.88,ENE,67,0.0,2.0,68,0.00,,,-99.99,0,WeatherLink 5.7,2013-04-03 06:55:00,
2013-04-03 01:00:00,39.3,29.6,29.88,North,-999,0.0,0.0,68,0.00,,,-99.99,0,WeatherLink 5.7,2013-04-03 07:00:00,
2013-04-03 01:10:00,39.5,29.8,29.87,North,-999,0.0,0.0,68,0.00,,,-99.99,0,WeatherLink 5.7,2013-04-03 07:10:00,
2013-04-03 01:15:00,39.6,29.9,29.87,ENE,67,0.0,1.0,68,0.00,,,-99.99,0,WeatherLink 5.7,2013-04-03 07:15:00,
2013-04-03 01:25:00,39.8,30.5,29.88,North,-999,0.0,0.0,69,0.00,,,-99.99,0,WeatherLink 5.7,2013-04-03 07:25:00,
2013-04-03 01:30:00,39.8,30.5,29.88,North,-999,0.0,0.0,69,0.00,,,-99.99,0,WeatherLink 5.7,2013-04-03 07:30:00,
2013-04-03 01:35:00,39.9,30.5,29.87,North,-999,0.0,0.0,69,0.00,,,-99.99,0,WeatherLink 5.7,2013-04-03 07:35:00,
2013-04-03 01:45:00,39.8,30.5,29.87,North,-999,0.0,0.0,69,0.00,,,-99.99,0,WeatherLink 5.7,2013-04-03 07:45:00,
2013-04-03 01:50:00,39.8,30.5,29.87,North,-999,0.0,0.0,69,0.00,,,-99.99,0,WeatherLink 5.7,2013-04-03 07:50:00,
2013-04-03 02:00:00,39.5,30.2,29.87,North,-999,0.0,0.0,69,0.00,,,-99.99,0,WeatherLink 5.7,2013-04-03 08:00:00,
2013-04-03 02:10:00,39.2,29.9,29.88,North,-999,0.0,0.0,69,0.00,,,-99.99,0,WeatherLink 5.7,2013-04-03 08:10:00,
2013-04-03 02:15:00,39.0,30.0,29.88,North,-999,0.0,0.0,70,0.00,,,-99.99,0,WeatherLink 5.7,2013-04-03 08:15:00,
2013-04-03 02:20:00,38.9,29.9,29.90,North,-999,0.0,0.0,70,0.00,,,-99.99,0,WeatherLink 5.7,2013-04-03 08:20:00,
2013-04-03 02:25:00,38.9,29.9,29.90,North,-999,0.0,0.0,70,0.00,,,-99.99,0,WeatherLink 5.7,2013-04-03 08:25:00,
2013-04-03 02:30:00,38.8,29.8,29.90,North,-999,0.0,0.0,70,0.00,,,-99.99,0,WeatherLink 5.7,2013-04-03 08:30:00,
2013-04-03 02:40:00,38.8,29.8,29.90,North,-999,0.0,0.0,70,0.00,,,-99.99,0,WeatherLink 5.7,2013-04-03 08:40:00,
2013-04-03 02:45:00,38.6,30.0,29.90,North,-999,0.0,0.0,71,0.00,,,-99.99,0,WeatherLink 5.7,2013-04-03 08:45:00,
2013-04-03 02:55:00,38.8,30.5,29.91,North,-999,0.0,0.0,72,0.00,,,-99.99,0,WeatherLink 5.7,2013-04-03 08:55:00,
2013-04-03 03:00:00,38.8,30.5,29.91,North,-999,0.0,0.0,72,0.00,,,-99.99,0,WeatherLink 5.7,2013-04-03 09:00:00,
2013-04-03 03:10:00,39.0,30.7,29.91,ENE,67,0.0,1.0,72,0.00,,,-99.99,0,WeatherLink 5.7,2013-04-03 09:10:00,
2013-04-03 03:15:00,39.0,30.7,29.91,ENE,67,0.0,2.0,72,0.00,,,-99.99,0,WeatherLink 5.7,2013-04-03 09:15:00,
2013-04-03 03:20:00,39.0,31.1,29.92,ENE,67,0.0,3.0,73,0.00,,,-99.99,0,WeatherLink 5.7,2013-04-03 09:20:00,
2013-04-03 03:25:00,39.0,31.1,29.92,ENE,67,0.0,1.0,73,0.00,,,-99.99,0,WeatherLink 5.7,2013-04-03 09:25:00,
2013-04-03 03:35:00,39.0,31.4,29.93,North,-999,0.0,0.0,74,0.00,,,-99.99,0,WeatherLink 5.7,2013-04-03 09:35:00,
2013-04-03 03:40:00,39.0,31.4,29.93,North,-999,0.0,0.0,74,0.00,,,-99.99,0,WeatherLink 5.7,2013-04-03 09:40:00,
2013-04-03 03:50:00,38.9,31.3,29.93,North,-999,0.0,0.0,74,0.00,,,-99.99,0,WeatherLink 5.7,2013-04-03 09:50:00,
2013-04-03 03:55:00,38.9,31.3,29.93,North,-999,0.0,0.0,74,0.00,,,-99.99,0,WeatherLink 5.7,2013-04-03 09:55:00,
2013-04-03 04:00:00,38.8,31.2,29.93,North,-999,0.0,0.0,74,0.00,,,-99.99,0,WeatherLink 5.7,2013-04-03 10:00:00,
2013-04-03 04:10:00,38.6,31.0,29.94,North,-999,0.0,0.0,74,0.00,,,-99.99,0,WeatherLink 5.7,2013-04-03 10:10:00,
2013-04-03 04:15:00,38.5,30.9,29.94,North,-999,0.0,0.0,74,0.00,,,-99.99,0,WeatherLink 5.7,2013-04-03 10:15:00,
2013-04-03 04:20:00,38.3,30.7,29.93,North,-999,0.0,0.0,74,0.00,,,-99.99,0,WeatherLink 5.7,2013-04-03 10:20:00,
2013-04-03 04:30:00,38.2,30.6,29.93,North,-999,0.0,0.0,74,0.00,,,-99.99,0,WeatherLink 5.7,2013-04-03 10:30:00,
2013-04-03 04:35:00,38.2,30.6,29.94,North,-999,0.0,0.0,74,0.00,,,-99.99,0,WeatherLink 5.7,2013-04-03 10:35:00,
2013-04-03 04:45:00,38.3,31.1,29.94,North,-999,0.0,0.0,75,0.00,,,-99.99,0,WeatherLink 5.7,2013-04-03 10:45:00,
2013-04-03 04:50:00,38.2,31.0,29.94,North,-999,0.0,0.0,75,0.00,,,-99.99,0,WeatherLink 5.7,2013-04-03 10:50:00,
2013-04-03 04:55:00,38.2,31.0,29.94,North,-999,0.0,0.0,75,0.00,,,-99.99,0,WeatherLink 5.7,2013-04-03 10:55:00,
2013-04-03 05:00:00,38.2,31.0,29.94,North,-999,0.0,0.0,75,0.00,,,-99.99,0,WeatherLink 5.7,2013-04-03 11:00:00,
2013-04-03 05:10:00,38.2,31.0,29.95,North,-999,0.0,0.0,75,0.00,,,-99.99,0,WeatherLink 5.7,2013-04-03 11:10:00,
2013-04-03 05:15:00,38.0,30.8,29.95,North,-999,0.0,0.0,75,0.00,,,-99.99,0,WeatherLink 5.7,2013-04-03 11:15:00,
2013-04-03 05:25:00,38.0,31.1,29.95,North,-999,0.0,0.0,76,0.00,,,-99.99,0,WeatherLink 5.7,2013-04-03 11:25:00,
2013-04-03 05:30:00,37.9,31.0,29.95,North,-999,0.0,0.0,76,0.00,,,-99.99,0,WeatherLink 5.7,2013-04-03 11:30:00,
2013-04-03 05:40:00,37.7,30.8,29.95,North,-999,0.0,0.0,76,0.00,,,-99.99,0,WeatherLink 5.7,2013-04-03 11:40:00,
2013-04-03 05:45:00,37.7,30.8,29.95,North,-999,0.0,0.0,76,0.00,,,-99.99,0,WeatherLink 5.7,2013-04-03 11:45:00,
2013-04-03 05:50:00,37.7,30.8,29.96,ENE,67,0.0,2.0,76,0.00,,,-99.99,0,WeatherLink 5.7,2013-04-03 11:50:00,
2013-04-03 06:00:00,37.6,30.7,29.96,North,-999,0.0,0.0,76,0.00,,,-99.99,0,WeatherLink 5.7,2013-04-03 12:00:00,
2013-04-03 06:10:00,37.6,31.0,29.97,North,-999,0.0,0.0,77,0.00,,,-99.99,0,WeatherLink 5.7,2013-04-03 12:10:00,
2013-04-03 06:15:00,37.5,30.9,29.97,North,-999,0.0,0.0,77,0.00,,,-99.99,0,WeatherLink 5.7,2013-04-03 12:15:00,
2013-04-03 06:20:00,37.3,30.7,29.99,North,-999,0.0,0.0,77,0.00,,,-99.99,0,WeatherLink 5.7,2013-04-03 12:20:00,
2013-04-03 06:30:00,37.0,30.5,29.99,North,-999,0.0,0.0,77,0.00,,,-99.99,0,WeatherLink 5.7,2013-04-03 12:30:00,
2013-04-03 06:35:00,36.9,30.4,30.00,North,-999,0.0,0.0,77,0.00,,,-99.99,0,WeatherLink 5.7,2013-04-03 12:35:00,
2013-04-03 06:40:00,36.9,30.7,30.00,North,-999,0.0,0.0,78,0.00,,,-99.99,0,WeatherLink 5.7,2013-04-03 12:40:00,
2013-04-03 06:45:00,36.7,30.5,30.00,North,-999,0.0,0.0,78,0.00,,,-99.99,0,WeatherLink 5.7,2013-04-03 12:45:00,
2013-04-03 06:55:00,36.6,30.4,30.01,North,-999,0.0,0.0,78,0.00,,,-99.99,0,WeatherLink 5.7,2013-04-03 12:55:00,
2013-04-03 07:00:00,36.7,30.5,30.01,North,-999,0.0,0.0,78,0.00,,,-99.99,0,WeatherLink 5.7,2013-04-03 13:00:00,
2013-04-03 07:10:00,36.9,31.0,30.01,North,-999,0.0,0.0,79,0.00,,,-99.99,9,WeatherLink 5.7,2013-04-03 13:10:00,
2013-04-03 07:15:00,37.0,31.1,30.01,North,-999,0.0,0.0,79,0.00,,,-99.99,12,WeatherLink 5.7,2013-04-03 13:15:00,
2013-04-03 07:20:00,37.0,31.1,30.03,North,-999,0.0,0.0,79,0.00,,,-99.99,17,WeatherLink 5.7,2013-04-03 13:20:00,
2013-04-03 07:25:00,36.9,31.0,30.03,ENE,67,0.0,1.0,79,0.00,,,-99.99,21,WeatherLink 5.7,2013-04-03 13:25:00,
2013-04-03 07:35:00,36.9,31.0,30.04,North,-999,0.0,0.0,79,0.00,,,-99.99,23,WeatherLink 5.7,2013-04-03 13:35:00,
2013-04-03 07:40:00,36.9,31.0,30.04,ENE,67,0.0,2.0,79,0.00,,,-99.99,21,WeatherLink 5.7,2013-04-03 13:40:00,
2013-04-03 07:45:00,36.7,30.8,30.04,North,-999,0.0,0.0,79,0.00,,,-99.99,22,WeatherLink 5.7,2013-04-03 13:45:00,
2013-04-03 07:55:00,36.7,30.8,30.05,ENE,67,0.0,2.0,79,0.00,,,-99.99,25,WeatherLink 5.7,2013-04-03 13:55:00,
2013-04-03 08:00:00,36.7,30.8,30.05,North,-999,0.0,0.0,79,0.00,,,-99.99,27,WeatherLink 5.7,2013-04-03 14:00:00,
2013-04-03 08:10:00,37.2,31.3,30.05,North,-999,0.0,0.0,79,0.00,,,-99.99,101,WeatherLink 5.7,2013-04-03 14:10:00,
2013-04-03 08:15:00,37.3,31.1,30.05,ENE,67,0.0,2.0,78,0.00,,,-99.99,88,WeatherLink 5.7,2013-04-03 14:15:00,
2013-04-03 08:20:00,37.9,31.7,30.05,ENE,67,0.0,2.0,78,0.00,,,-99.99,151,WeatherLink 5.7,2013-04-03 14:20:00,
2013-04-03 08:30:00,38.2,31.6,30.05,North,-999,0.0,0.0,77,0.00,,,-99.99,90,WeatherLink 5.7,2013-04-03 14:30:00,
2013-04-03 08:35:00,38.3,31.7,30.05,North,-999,0.0,0.0,77,0.00,,,-99.99,62,WeatherLink 5.7,2013-04-03 14:35:00,
2013-04-03 08:45:00,38.6,32.0,30.05,North,-999,0.0,0.0,77,0.00,,,-99.99,104,WeatherLink 5.7,2013-04-03 14:45:00,
2013-04-03 08:55:00,39.2,32.3,30.06,North,-999,0.0,0.0,76,0.00,,,-99.99,122,WeatherLink 5.7,2013-04-03 14:55:00,
2013-04-03 09:00:00,39.5,32.6,30.06,North,-999,0.0,0.0,76,0.00,,,-99.99,107,WeatherLink 5.7,2013-04-03 15:00:00,
2013-04-03 09:10:00,39.8,32.5,30.05,North,-999,0.0,0.0,75,0.00,,,-99.99,149,WeatherLink 5.7,2013-04-03 15:10:00,
2013-04-03 09:15:00,40.3,32.3,30.05,North,-999,0.0,0.0,73,0.00,,,-99.99,172,WeatherLink 5.7,2013-04-03 15:15:00,
2013-04-03 09:25:00,40.8,32.5,30.06,North,-999,0.0,0.0,72,0.00,,,-99.99,117,WeatherLink 5.7,2013-04-03 15:25:00,
2013-04-03 09:35:00,41.3,32.2,30.06,North,-999,0.0,0.0,70,0.00,,,-99.99,334,WeatherLink 5.7,2013-04-03 15:35:00,
2013-04-03 09:40:00,42.5,32.7,30.06,ENE,67,1.0,4.0,68,0.00,,,-99.99,525,WeatherLink 5.7,2013-04-03 15:40:00,
2013-04-03 09:50:00,44.6,32.8,30.03,East,90,0.0,1.0,63,0.00,,,-99.99,587,WeatherLink 5.7,2013-04-03 15:50:00,
2013-04-03 10:00:00,46.1,32.1,30.03,East,90,0.0,2.0,58,0.00,,,-99.99,619,WeatherLink 5.7,2013-04-03 16:00:00,
2013-04-03 10:10:00,47.0,31.7,30.02,SE,135,0.0,1.0,55,0.00,,,-99.99,640,WeatherLink 5.7,2013-04-03 16:10:00,
2013-04-03 10:15:00,47.0,29.8,30.02,SE,135,0.0,4.0,51,0.00,,,-99.99,659,WeatherLink 5.7,2013-04-03 16:15:00,
2013-04-03 10:20:00,47.1,29.4,30.01,South,180,0.0,1.0,50,0.00,,,-99.99,673,WeatherLink 5.7,2013-04-03 16:20:00,
2013-04-03 10:30:00,48.5,29.2,30.01,NNW,337,0.0,1.0,47,0.00,,,-99.99,743,WeatherLink 5.7,2013-04-03 16:30:00,
2013-04-03 10:35:00,48.3,29.0,30.01,NNW,337,1.0,4.0,47,0.00,,,-99.99,796,WeatherLink 5.7,2013-04-03 16:35:00,
2013-04-03 10:40:00,49.8,30.4,30.01,NW,315,0.0,1.0,47,0.00,,,-99.99,813,WeatherLink 5.7,2013-04-03 16:40:00,
2013-04-03 10:50:00,49.3,28.8,29.99,NW,315,0.0,1.0,45,0.00,,,-99.99,769,WeatherLink 5.7,2013-04-03 16:50:00,
2013-04-03 11:00:00,50.7,29.0,29.99,NNE,22,0.0,1.0,43,0.00,,,-99.99,820,WeatherLink 5.7,2013-04-03 17:00:00,
2013-04-03 11:10:00,51.3,29.5,29.98,SSE,157,0.0,3.0,43,0.00,,,-99.99,859,WeatherLink 5.7,2013-04-03 17:10:00,
2013-04-03 11:20:00,52.0,29.0,29.98,WSW,247,0.0,3.0,41,0.00,,,-99.99,882,WeatherLink 5.7,2013-04-03 17:20:00,
2013-04-03 11:25:00,52.0,27.8,29.98,SW,225,0.0,3.0,39,0.00,,,-99.99,864,WeatherLink 5.7,2013-04-03 17:25:00,
2013-04-03 11:30:00,51.7,29.3,29.98,West,270,0.0,3.0,42,0.00,,,-99.99,877,WeatherLink 5.7,2013-04-03 17:30:00,
2013-04-03 11:40:00,52.8,28.5,29.98,North,0,0.0,3.0,39,0.00,,,-99.99,881,WeatherLink 5.7,2013-04-03 17:40:00,
2013-04-03 11:50:00,52.5,27.6,29.98,NNW,337,1.0,6.0,38,0.00,,,-99.99,898,WeatherLink 5.7,2013-04-03 17:50:00,
2013-04-03 11:55:00,52.5,27.6,29.98,NNW,337,1.0,7.0,38,0.00,,,-99.99,903,WeatherLink 5.7,2013-04-03 17:55:00,
2013-04-03 12:00:00,52.5,27.6,29.98,NW,315,1.0,6.0,38,0.00,,,-99.99,915,WeatherLink 5.7,2013-04-03 18:00:00,
2013-04-03 12:10:00,53.0,26.7,29.98,NW,315,0.0,3.0,36,0.00,,,-99.99,956,WeatherLink 5.7,2013-04-03 18:10:00,
2013-04-03 12:20:00,53.5,26.5,29.96,WNW,292,1.0,4.0,35,0.00,,,-99.99,966,WeatherLink 5.7,2013-04-03 18:20:00,
2013-04-03 12:30:00,53.8,26.8,29.96,SE,135,0.0,3.0,35,0.00,,,-99.99,981,WeatherLink 5.7,2013-04-03 18:30:00,
2013-04-03 12:40:00,54.8,26.9,29.95,NW,315,1.0,4.0,34,0.00,,,-99.99,1020,WeatherLink 5.7,2013-04-03 18:40:00,
2013-04-03 12:45:00,54.8,25.5,29.95,NW,315,1.0,5.0,32,0.00,,,-99.99,1034,WeatherLink 5.7,2013-04-03 18:45:00,
2013-04-03 12:55:00,55.4,26.7,29.95,NW,315,1.0,8.0,33,0.00,,,-99.99,1019,WeatherLink 5.7,2013-04-03 18:55:00,
2013-04-03 13:00:00,54.2,25.7,29.95,NW,315,3.0,9.0,33,0.00,,,-99.99,1007,WeatherLink 5.7,2013-04-03 19:00:00,
2013-04-03 13:10:00,55.6,27.6,29.95,NNW,337,1.0,8.0,34,0.00,,,-99.99,990,WeatherLink 5.7,2013-04-03 19:10:00,
2013-04-03 13:15:00,55.1,25.0,29.95,NW,315,1.0,7.0,31,0.00,,,-99.99,1045,WeatherLink 5.7,2013-04-03 19:15:00,
2013-04-03 13:25:00,56.2,25.9,29.95,NNW,337,1.0,6.0,31,0.00,,,-99.99,1032,WeatherLink 5.7,2013-04-03 19:25:00,
2013-04-03 13:30:00,56.9,26.5,29.95,NNW,337,2.0,7.0,31,0.00,,,-99.99,1001,WeatherLink 5.7,2013-04-03 19:30:00,
2013-04-03 13:40:00,56.6,26.3,29.94,North,0,0.0,3.0,31,0.00,,,-99.99,998,WeatherLink 5.7,2013-04-03 19:40:00,
2013-04-03 13:50:00,56.9,24.9,29.92,NNW,337,2.0,9.0,29,0.00,,,-99.99,1029,WeatherLink 5.7,2013-04-03 19:50:00,
2013-04-03 14:00:00,57.3,26.9,29.92,SE,135,1.0,5.0,31,0.00,,,-99.99,1028,WeatherLink 5.7,2013-04-03 20:00:00,
2013-04-03 14:10:00,57.8,26.5,29.92,WNW,292,2.0,5.0,30,0.00,,,-99.99,1001,WeatherLink 5.7,2013-04-03 20:10:00,
2013-04-03 14:20:00,58.3,26.1,29.92,NW,315,3.0,10.0,29,0.00,,,-99.99,830,WeatherLink 5.7,2013-04-03 20:20:00,
2013-04-03 14:25:00,57.8,27.3,29.92,NW,315,0.0,1.0,31,0.00,,,-99.99,161,WeatherLink 5.7,2013-04-03 20:25:00,
2013-04-03 14:30:00,56.7,25.6,29.92,ENE,67,0.0,3.0,30,0.00,,,-99.99,137,WeatherLink 5.7,2013-04-03 20:30:00,
2013-04-03 14:35:00,56.6,24.7,29.92,East,90,1.0,6.0,29,0.00,,,-99.99,442,WeatherLink 5.7,2013-04-03 20:35:00,
2013-04-03 14:45:00,56.4,25.3,29.92,NW,315,1.0,3.0,30,0.00,,,-99.99,118,WeatherLink 5.7,2013-04-03 20:45:00,
2013-04-03 14:50:00,56.6,24.7,29.92,NW,315,1.0,4.0,29,0.00,,,-99.99,410,WeatherLink 5.7,2013-04-03 20:50:00,
2013-04-03 15:00:00,58.4,26.2,29.92,NW,315,1.0,3.0,29,0.00,,,-99.99,914,WeatherLink 5.7,2013-04-03 21:00:00,
2013-04-03 15:10:00,59.6,25.5,29.89,NNW,337,2.0,9.0,27,0.00,,,-99.99,716,WeatherLink 5.7,2013-04-03 21:10:00,
2013-04-03 15:20:00,59.8,25.7,29.89,NW,315,2.0,6.0,27,0.00,,,-99.99,1000,WeatherLink 5.7,2013-04-03 21:20:00,
2013-04-03 15:25:00,58.9,24.9,29.89,WNW,292,1.0,6.0,27,0.00,,,-99.99,269,WeatherLink 5.7,2013-04-03 21:25:00,
2013-04-03 15:30:00,59.6,25.5,29.89,WNW,292,1.0,5.0,27,0.00,,,-99.99,930,WeatherLink 5.7,2013-04-03 21:30:00,
2013-04-03 15:35:00,59.5,25.5,29.89,NW,315,3.0,11.0,27,0.00,,,-99.99,897,WeatherLink 5.7,2013-04-03 21:35:00,
2013-04-03 15:40:00,59.2,25.2,29.89,NW,315,2.0,7.0,27,0.00,,,-99.99,876,WeatherLink 5.7,2013-04-03 21:40:00,
2013-04-03 15:50:00,59.0,24.1,29.89,WSW,247,1.0,5.0,26,0.00,,,-99.99,807,WeatherLink 5.7,2013-04-03 21:50:00,
2013-04-03 15:55:00,59.0,25.9,29.89,East,90,2.0,7.0,28,0.00,,,-99.99,775,WeatherLink 5.7,2013-04-03 21:55:00,
2013-04-03 16:00:00,59.8,26.6,29.89,East,90,1.0,5.0,28,0.00,,,-99.99,742,WeatherLink 5.7,2013-04-03 22:00:00,
2013-04-03 16:10:00,60.7,24.6,29.89,WSW,247,1.0,6.0,25,0.00,,,-99.99,716,WeatherLink 5.7,2013-04-03 22:10:00,
2013-04-03 16:15:00,60.7,25.6,29.89,SE,135,1.0,3.0,26,0.00,,,-99.99,715,WeatherLink 5.7,2013-04-03 22:15:00,
2013-04-03 16:25:00,60.2,24.2,29.88,WSW,247,0.0,4.0,25,0.00,,,-99.99,503,WeatherLink 5.7,2013-04-03 22:25:00,
2013-04-03 16:30:00,59.5,24.5,29.88,East,90,2.0,6.0,26,0.00,,,-99.99,144,WeatherLink 5.7,2013-04-03 22:30:00,
2013-04-03 16:40:00,58.9,23.1,29.89,ESE,112,1.0,4.0,25,0.00,,,-99.99,205,WeatherLink 5.7,2013-04-03 22:40:00,
2013-04-03 16:45:00,58.9,24.0,29.89,East,90,1.0,4.0,26,0.00,,,-99.99,223,WeatherLink 5.7,2013-04-03 22:45:00,
2013-04-03 16:55:00,60.1,24.1,29.89,SE,135,1.0,5.0,25,0.00,,,-99.99,670,WeatherLink 5.7,2013-04-03 22:55:00,
2013-04-03 17:00:00,59.8,23.9,29.89,SE,135,0.0,4.0,25,0.00,,,-99.99,267,WeatherLink 5.7,2013-04-03 23:00:00,
2013-04-03 17:10:00,60.9,22.8,29.87,NW,315,1.0,4.0,23,0.00,,,-99.99,576,WeatherLink 5.7,2013-04-03 23:10:00,
2013-04-03 17:15:00,60.9,22.8,29.87,NW,315,0.0,2.0,23,0.00,,,-99.99,318,WeatherLink 5.7,2013-04-03 23:15:00,
2013-04-03 17:20:00,61.0,22.9,29.87,NW,315,0.0,4.0,23,0.00,,,-99.99,125,WeatherLink 5.7,2013-04-03 23:20:00,
2013-04-03 17:30:00,60.4,23.4,29.87,West,270,0.0,2.0,24,0.00,,,-99.99,143,WeatherLink 5.7,2013-04-03 23:30:00,
2013-04-03 17:35:00,60.1,22.1,29.87,West,270,0.0,3.0,23,0.00,,,-99.99,150,WeatherLink 5.7,2013-04-03 23:35:00,
2013-04-03 17:45:00,60.2,22.2,29.87,West,270,0.0,2.0,23,0.00,,,-99.99,176,WeatherLink 5.7,2013-04-03 23:45:00,
2013-04-03 17:50:00,60.1,23.1,29.87,West,270,0.0,2.0,24,0.00,,,-99.99,100,WeatherLink 5.7,2013-04-03 23:50:00,
2013-04-03 17:55:00,59.9,23.0,29.87,North,-999,0.0,0.0,24,0.00,,,-99.99,283,WeatherLink 5.7,2013-04-03 23:55:00,
2013-04-03 18:00:00,60.4,22.4,29.87,WNW,292,0.0,2.0,23,0.00,,,-99.99,285,WeatherLink 5.7,2013-04-04 00:00:00,
2013-04-03 18:10:00,60.1,20.0,29.87,NNW,337,2.0,10.0,21,0.00,,,-99.99,196,WeatherLink 5.7,2013-04-04 00:10:00,
2013-04-03 18:20:00,60.6,20.4,29.87,WNW,292,0.0,2.0,21,0.00,,,-99.99,258,WeatherLink 5.7,2013-04-04 00:20:00,
2013-04-03 18:25:00,60.9,20.7,29.87,South,180,0.0,2.0,21,0.00,,,-99.99,162,WeatherLink 5.7,2013-04-04 00:25:00,
2013-04-03 18:30:00,60.7,21.6,29.87,WSW,247,0.0,3.0,22,0.00,,,-99.99,48,WeatherLink 5.7,2013-04-04 00:30:00,
2013-04-03 18:40:00,59.6,19.6,29.88,WSW,247,0.0,3.0,21,0.00,,,-99.99,47,WeatherLink 5.7,2013-04-04 00:40:00,
2013-04-03 18:45:00,59.3,19.3,29.88,North,0,0.0,2.0,21,0.00,,,-99.99,44,WeatherLink 5.7,2013-04-04 00:45:00,
2013-04-03 18:55:00,58.9,20.1,29.89,NNW,337,0.0,4.0,22,0.00,,,-99.99,32,WeatherLink 5.7,2013-04-04 00:55:00,
2013-04-03 19:00:00,58.6,19.8,29.89,NNW,337,1.0,4.0,22,0.00,,,-99.99,28,WeatherLink 5.7,2013-04-04 01:00:00,
2013-04-03 19:10:00,58.1,18.3,29.90,NNW,337,2.0,6.0,21,0.00,,,-99.99,19,WeatherLink 5.7,2013-04-04 01:10:00,
2013-04-03 19:15:00,58.0,18.2,29.90,WNW,292,1.0,9.0,21,0.00,,,-99.99,16,WeatherLink 5.7,2013-04-04 01:15:00,
2013-04-03 19:20:00,57.8,18.1,29.90,NW,315,3.0,7.0,21,0.00,,,-99.99,13,WeatherLink 5.7,2013-04-04 01:20:00,
2013-04-03 19:30:00,57.7,19.1,29.90,NW,315,5.0,10.0,22,0.00,,,-99.99,10,WeatherLink 5.7,2013-04-04 01:30:00,
2013-04-03 19:40:00,57.3,18.7,29.91,NW,315,4.0,7.0,22,0.00,,,-99.99,3,WeatherLink 5.7,2013-04-04 01:40:00,
2013-04-03 19:45:00,57.3,18.7,29.91,WNW,292,4.0,7.0,22,0.00,,,-99.99,0,WeatherLink 5.7,2013-04-04 01:45:00,
2013-04-03 19:50:00,57.0,18.5,29.91,NW,315,3.0,5.0,22,0.00,,,-99.99,0,WeatherLink 5.7,2013-04-04 01:50:00,
2013-04-03 20:00:00,56.7,18.2,29.91,WNW,292,3.0,8.0,22,0.00,,,-99.99,0,WeatherLink 5.7,2013-04-04 02:00:00,
2013-04-03 20:10:00,55.7,18.4,29.93,West,270,0.0,4.0,23,0.00,,,-99.99,0,WeatherLink 5.7,2013-04-04 02:10:00,
2013-04-03 20:20:00,54.5,20.3,29.92,ENE,67,0.0,3.0,26,0.00,,,-99.99,0,WeatherLink 5.7,2013-04-04 02:20:00,
2013-04-03 20:25:00,53.9,18.8,29.92,ENE,67,0.0,1.0,25,0.00,,,-99.99,0,WeatherLink 5.7,2013-04-04 02:25:00,
2013-04-03 20:35:00,53.0,19.9,29.95,North,-999,0.0,0.0,27,0.00,,,-99.99,0,WeatherLink 5.7,2013-04-04 02:35:00,
2013-04-03 20:40:00,52.6,19.5,29.95,North,-999,0.0,0.0,27,0.00,,,-99.99,0,WeatherLink 5.7,2013-04-04 02:40:00,
2013-04-03 20:50:00,51.6,20.3,29.96,North,-999,0.0,0.0,29,0.00,,,-99.99,0,WeatherLink 5.7,2013-04-04 02:50:00,
2013-04-03 20:55:00,50.8,19.6,29.96,ENE,67,0.0,1.0,29,0.00,,,-99.99,0,WeatherLink 5.7,2013-04-04 02:55:00,
2013-04-03 21:00:00,50.4,20.1,29.96,ENE,67,0.0,2.0,30,0.00,,,-99.99,0,WeatherLink 5.7,2013-04-04 03:00:00,
2013-04-03 21:10:00,49.3,19.9,29.98,North,-999,0.0,0.0,31,0.00,,,-99.99,0,WeatherLink 5.7,2013-04-04 03:10:00,
2013-04-03 21:20:00,48.8,19.5,29.98,North,-999,0.0,0.0,31,0.00,,,-99.99,0,WeatherLink 5.7,2013-04-04 03:20:00,
2013-04-03 21:25:00,48.5,19.2,29.98,North,-999,0.0,0.0,31,0.00,,,-99.99,0,WeatherLink 5.7,2013-04-04 03:25:00,
2013-04-03 21:35:00,47.7,20.0,29.98,North,-999,0.0,0.0,33,0.00,,,-99.99,0,WeatherLink 5.7,2013-04-04 03:35:00,
2013-04-03 21:40:00,47.4,19.7,29.98,North,-999,0.0,0.0,33,0.00,,,-99.99,0,WeatherLink 5.7,2013-04-04 03:40:00,
2013-04-03 21:50:00,47.3,20.3,30.00,North,-999,0.0,0.0,34,0.00,,,-99.99,0,WeatherLink 5.7,2013-04-04 03:50:00,
2013-04-03 22:00:00,46.5,20.3,30.00,ENE,67,0.0,2.0,35,0.00,,,-99.99,0,WeatherLink 5.7,2013-04-04 04:00:00,
2013-04-03 22:05:00,46.2,20.7,30.01,ENE,67,1.0,3.0,36,0.00,,,-99.99,0,WeatherLink 5.7,2013-04-04 04:05:00,
2013-04-03 22:15:00,45.9,21.1,30.01,SE,135,0.0,3.0,37,0.00,,,-99.99,0,WeatherLink 5.7,2013-04-04 04:15:00,
2013-04-03 22:20:00,45.7,21.5,29.99,SE,135,0.0,3.0,38,0.00,,,-99.99,0,WeatherLink 5.7,2013-04-04 04:20:00,
2013-04-03 22:25:00,44.9,21.4,29.99,ESE,112,1.0,4.0,39,0.00,,,-99.99,0,WeatherLink 5.7,2013-04-04 04:25:00,
2013-04-03 22:35:00,45.1,21.6,30.00,ESE,112,1.0,4.0,39,0.00,,,-99.99,0,WeatherLink 5.7,2013-04-04 04:35:00,
2013-04-03 22:40:00,44.8,21.9,30.00,ESE,112,0.0,2.0,40,0.00,,,-99.99,0,WeatherLink 5.7,2013-04-04 04:40:00,
2013-04-03 22:50:00,43.9,21.7,30.01,ESE,112,0.0,1.0,41,0.00,,,-99.99,0,WeatherLink 5.7,2013-04-04 04:50:00,
2013-04-03 22:55:00,43.5,21.9,30.01,ESE,112,0.0,2.0,42,0.00,,,-99.99,0,WeatherLink 5.7,2013-04-04 04:55:00,
2013-04-03 23:00:00,43.0,22.0,30.01,ESE,112,1.0,3.0,43,0.00,,,-99.99,0,WeatherLink 5.7,2013-04-04 05:00:00,
2013-04-03 23:10:00,42.3,22.4,30.01,North,-999,0.0,0.0,45,0.00,,,-99.99,0,WeatherLink 5.7,2013-04-04 05:10:00,
2013-04-03 23:20:00,42.2,22.9,30.01,ESE,112,0.0,3.0,46,0.00,,,-99.99,0,WeatherLink 5.7,2013-04-04 05:20:00,
2013-04-03 23:25:00,42.2,22.4,30.01,ESE,112,0.0,1.0,45,0.00,,,-99.99,0,WeatherLink 5.7,2013-04-04 05:25:00,
2013-04-03 23:30:00,42.0,22.7,30.01,ESE,112,0.0,1.0,46,0.00,,,-99.99,0,WeatherLink 5.7,2013-04-04 05:30:00,
2013-04-03 23:35:00,41.9,22.6,30.02,ESE,112,0.0,3.0,46,0.00,,,-99.99,0,WeatherLink 5.7,2013-04-04 05:35:00,
2013-04-03 23:45:00,41.8,23.0,30.02,East,90,2.0,4.0,47,0.00,,,-99.99,0,WeatherLink 5.7,2013-04-04 05:45:00,
2013-04-03 23:50:00,41.5,23.2,30.02,SE,135,1.0,3.0,48,0.00,,,-99.99,0,WeatherLink 5.7,2013-04-04 05:50:00,